When you browse on this site, cookies collect data to enhance your experience and personalize the content and advertising you see.
Visit our Privacy Policy to learn more. By continuing to use the site, you agree to this use of cookies and data.
  • In Hungary
  • List of Countries
  • For 7 days
  • Water Temperature
  • Weather Map
  • News
  • Weather Widgets
  • user-avatar
    Login

    Hourly Weather Elgin

    Today, 22 November, Friday

    Time Temperature Precipitation Wind Pressure Humidity
    00:00 0°C° 0 mm 4 mps 743 mmHg 79%
    01:00 -1°C° 0 mm 4 mps 743 mmHg 80%
    02:00 -2°C° 0 mm 4 mps 743 mmHg 81%
    03:00 -3°C° 0 mm 4 mps 743 mmHg 81%
    04:00 -3°C° 0 mm 4 mps 744 mmHg 82%
    05:00 -4°C° 0 mm 3 mps 744 mmHg 82%
    06:00 -5°C° 0 mm 3 mps 744 mmHg 82%
    07:00 -4°C° 0 mm 3 mps 745 mmHg 79%
    08:00 -4°C° 0 mm 3 mps 745 mmHg 75%
    09:00 -4°C° 0 mm 3 mps 746 mmHg 72%
    10:00 -1°C° 0 mm 3 mps 746 mmHg 65%
    11:00 +1°C° 0 mm 2 mps 746 mmHg 59%
    12:00 +2°C° 0 mm 2 mps 746 mmHg 52%
    13:00 +4°C° 0 mm 1 mps 746 mmHg 51%
    14:00 +4°C° 0 mm 1 mps 745 mmHg 50%
    15:00 +4°C° 0 mm 1 mps 745 mmHg 49%
    16:00 +3°C° 0 mm 1 mps 744 mmHg 54%
    17:00 +2°C° 0 mm 1 mps 744 mmHg 58%
    18:00 +1°C° 0 mm 1 mps 744 mmHg 63%
    19:00 +1°C° 0 mm 1 mps 744 mmHg 65%
    20:00 +1°C° 0 mm 1 mps 744 mmHg 67%
    21:00 -2°C° 0 mm 2 mps 744 mmHg 69%
    22:00 -2°C° 0 mm 2 mps 743 mmHg 69%
    23:00 -2°C° 0 mm 2 mps 743 mmHg 70%

    Tomorrow, 23 November, Saturday

    Time Temperature Precipitation Wind Pressure Humidity
    00:00 -2°C° 0 mm 2 mps 742 mmHg 71%
    01:00 -2°C° 0 mm 2 mps 742 mmHg 72%
    02:00 -2°C° 0 mm 2 mps 742 mmHg 72%
    03:00 -2°C° 0 mm 2 mps 741 mmHg 72%
    04:00 -2°C° 0 mm 2 mps 741 mmHg 73%
    05:00 -2°C° 0 mm 2 mps 740 mmHg 74%
    06:00 -2°C° 0 mm 2 mps 739 mmHg 75%
    07:00 -2°C° 0 mm 2 mps 739 mmHg 72%
    08:00 -1°C° 0 mm 2 mps 739 mmHg 68%
    09:00 +1°C° 0 mm 2 mps 739 mmHg 65%
    10:00 +1°C° 0 mm 3 mps 738 mmHg 61%
    11:00 +1°C° 0 mm 3 mps 737 mmHg 58%
    12:00 +2°C° 0 mm 3 mps 737 mmHg 54%
    13:00 +2°C° 0 mm 3 mps 736 mmHg 54%
    14:00 +3°C° 0 mm 3 mps 736 mmHg 54%
    15:00 +3°C° 0 mm 4 mps 735 mmHg 54%
    16:00 +1°C° 0 mm 4 mps 735 mmHg 60%
    17:00 +1°C° 0 mm 3 mps 735 mmHg 67%
    18:00 0°C° 0 mm 3 mps 735 mmHg 74%
    19:00 -1°C° 0 mm 3 mps 735 mmHg 76%
    20:00 -2°C° 0 mm 4 mps 735 mmHg 78%
    21:00 -2°C° 0 mm 4 mps 735 mmHg 80%
    22:00 -2°C° 0 mm 4 mps 735 mmHg 81%
    23:00 -1°C° 0 mm 3 mps 735 mmHg 82%

    Day after tomorrow, 24 November, Sunday

    Time Temperature Precipitation Wind Pressure Humidity
    00:00 -1°C° 0 mm 3 mps 734 mmHg 83%
    01:00 -1°C° 0 mm 3 mps 734 mmHg 84%
    02:00 -1°C° 0 mm 3 mps 734 mmHg 85%
    03:00 -2°C° 0 mm 3 mps 734 mmHg 86%
    04:00 -2°C° 0 mm 3 mps 734 mmHg 88%
    05:00 -2°C° 0 mm 3 mps 734 mmHg 89%
    06:00 -2°C° 0 mm 3 mps 734 mmHg 90%
    07:00 -1°C° 0 mm 3 mps 735 mmHg 86%
    08:00 -2°C° 0 mm 4 mps 735 mmHg 81%
    09:00 -1°C° 0 mm 4 mps 735 mmHg 76%
    10:00 +1°C° 0 mm 4 mps 735 mmHg 72%
    11:00 +4°C° 0 mm 4 mps 735 mmHg 69%
    12:00 +5°C° 0 mm 4 mps 735 mmHg 65%
    13:00 +5°C° 0 mm 4 mps 734 mmHg 67%
    14:00 +5°C° 0 mm 3 mps 734 mmHg 70%
    15:00 +5°C° 0 mm 3 mps 733 mmHg 73%
    16:00 +4°C° 0 mm 3 mps 733 mmHg 77%
    17:00 +3°C° 0 mm 3 mps 734 mmHg 81%
    18:00 +2°C° 0 mm 3 mps 734 mmHg 86%
    19:00 +2°C° 0 mm 3 mps 733 mmHg 86%
    20:00 +2°C° 0 mm 3 mps 733 mmHg 87%
    21:00 +2°C° 0 mm 3 mps 733 mmHg 87%
    22:00 +2°C° 0 mm 3 mps 733 mmHg 87%
    23:00 +1°C° 0 mm 4 mps 733 mmHg 86%

    25 November, Monday

    Time Temperature Precipitation Wind Pressure Humidity
    00:00 +1°C° 0 mm 4 mps 732 mmHg 86%
    01:00 +1°C° 0 mm 4 mps 732 mmHg 87%
    02:00 0°C° 0 mm 4 mps 732 mmHg 89%
    03:00 0°C° 0 mm 4 mps 731 mmHg 90%
    04:00 0°C° 0 mm 4 mps 731 mmHg 90%
    05:00 0°C° 0 mm 4 mps 731 mmHg 91%
    06:00 0°C° 0 mm 5 mps 731 mmHg 91%
    07:00 +1°C° 0 mm 5 mps 731 mmHg 89%
    08:00 +1°C° 0 mm 5 mps 732 mmHg 88%
    09:00 +2°C° 0 mm 5 mps 732 mmHg 86%
    10:00 +3°C° 0 mm 5 mps 732 mmHg 81%
    11:00 +6°C° 0 mm 5 mps 732 mmHg 76%
    12:00 +7°C° 0 mm 5 mps 732 mmHg 72%
    13:00 +7°C° 0 mm 4 mps 732 mmHg 72%
    14:00 +8°C° 0 mm 4 mps 732 mmHg 72%
    15:00 +9°C° 0 mm 3 mps 732 mmHg 73%
    16:00 +8°C° 0 mm 3 mps 733 mmHg 77%
    17:00 +7°C° 0 mm 3 mps 733 mmHg 82%
    18:00 +5°C° 0 mm 2 mps 734 mmHg 87%
    19:00 +5°C° 0 mm 2 mps 734 mmHg 88%
    20:00 +5°C° 0 mm 2 mps 734 mmHg 88%
    21:00 +5°C° 0 mm 2 mps 735 mmHg 89%
    22:00 +5°C° 0 mm 1 mps 735 mmHg 88%
    23:00 +5°C° 0 mm 1 mps 735 mmHg 86%

    26 November, Tuesday

    Time Temperature Precipitation Wind Pressure Humidity
    00:00 +5°C° 0 mm 1 mps 735 mmHg 85%
    01:00 +5°C° 0 mm 1 mps 735 mmHg 83%
    02:00 +4°C° 0 mm 2 mps 735 mmHg 82%
    03:00 +3°C° 0 mm 2 mps 735 mmHg 80%
    04:00 +3°C° 0 mm 2 mps 735 mmHg 82%
    05:00 +3°C° 0 mm 2 mps 735 mmHg 83%
    06:00 +2°C° 0 mm 2 mps 735 mmHg 84%
    07:00 +2°C° 0.4 mm 3 mps 734 mmHg 86%
    08:00 +3°C° 0.4 mm 4 mps 734 mmHg 88%
    09:00 +2°C° 0.4 mm 5 mps 734 mmHg 90%
    10:00 +3°C° 1.2 mm 5 mps 733 mmHg 92%
    11:00 +4°C° 1.2 mm 4 mps 732 mmHg 95%
    12:00 +4°C° 1.2 mm 4 mps 731 mmHg 97%
    13:00 +5°C° 1 mm 4 mps 730 mmHg 97%
    14:00 +5°C° 1 mm 3 mps 729 mmHg 97%
    15:00 +7°C° 1 mm 3 mps 728 mmHg 97%
    16:00 +7°C° 1.1 mm 4 mps 727 mmHg 96%
    17:00 +8°C° 1.1 mm 5 mps 726 mmHg 95%
    18:00 +9°C° 1.1 mm 7 mps 725 mmHg 94%
    19:00 +7°C° 0.7 mm 8 mps 725 mmHg 90%
    20:00 +7°C° 0.7 mm 10 mps 725 mmHg 85%
    21:00 +7°C° 0.7 mm 12 mps 725 mmHg 81%
    22:00 +4°C° 0 mm 11 mps 727 mmHg 81%
    23:00 +1°C° 0 mm 10 mps 729 mmHg 81%

    27 November, Wednesday

    Time Temperature Precipitation Wind Pressure Humidity
    00:00 -1°C° 0 mm 9 mps 731 mmHg 81%
    01:00 -1°C° 0 mm 8 mps 733 mmHg 80%
    02:00 -1°C° 0 mm 8 mps 735 mmHg 79%
    03:00 -1°C° 0 mm 7 mps 738 mmHg 79%
    04:00 -2°C° 0 mm 7 mps 739 mmHg 79%
    05:00 -3°C° 0 mm 7 mps 741 mmHg 80%
    06:00 -4°C° 0 mm 7 mps 742 mmHg 81%
    07:00 -3°C° 0 mm 6 mps 744 mmHg 79%
    08:00 -3°C° 0 mm 6 mps 745 mmHg 77%
    09:00 -1°C° 0 mm 5 mps 746 mmHg 74%
    10:00 -1°C° 0 mm 4 mps 747 mmHg 72%
    11:00 0°C° 0 mm 4 mps 747 mmHg 70%
    12:00 +2°C° 0 mm 3 mps 748 mmHg 68%
    13:00 +2°C° 0 mm 3 mps 749 mmHg 68%
    14:00 +1°C° 0 mm 3 mps 749 mmHg 69%
    15:00 +1°C° 0 mm 3 mps 749 mmHg 70%
    16:00 0°C° 0 mm 3 mps 750 mmHg 75%
    17:00 -1°C° 0 mm 3 mps 751 mmHg 79%
    18:00 -2°C° 0 mm 3 mps 752 mmHg 84%
    19:00 -2°C° 0 mm 3 mps 752 mmHg 84%
    20:00 -2°C° 0 mm 2 mps 752 mmHg 85%
    21:00 -3°C° 0 mm 2 mps 753 mmHg 85%
    22:00 -3°C° 0 mm 2 mps 753 mmHg 83%
    23:00 -3°C° 0 mm 2 mps 753 mmHg 80%
    Show more